Kapolei, HI

11:40 AM HST on February 25, 2017 (GMT -1000)
Kalaeloa (John Rodgers Field)

Weather History for PHJR - January, 2012

Change the Weather History Date:

Monday, January 2, 2012

  Actual Average (PHNL) Record (PHNL)
Temperature  
Mean Temperature 72 °F -  
Max Temperature 79 °F 80 °F 84 °F (1957)
Min Temperature 64 °F 65 °F 57 °F (1979)
Cooling Degree Days 6    
Growing Degree Days 22 (Base 50)    
Moisture  
Dew Point 65 °F    
Average Humidity 80    
Maximum Humidity 90    
Minimum Humidity 68    
Precipitation  
Precipitation 0.00 in - - ()
Sea Level Pressure  
Sea Level Pressure 30.10 in    
Wind  
Wind Speed 2 mph (SW)    
Max Wind Speed 10 mph    
Max Gust Speed -    
Visibility 10 miles    
Events      
Averages and records for this station are not official NWS values.
T = Trace of Precipitation, MM = Missing Value Source: NWS Daily Summary

Daily Weather History Graph

Daily Weather History Graph

Search for Another Location

Airport or City:

Trip Planner

Search our weather history database for the weather conditions in past years. The results will help you decide how hot, cold, wet, or windy it might be!

Date:

Astronomy

Jan. 02, 2012 Rise Set
Actual Time 7:10 AM HST 6:02 PM HST
Civil Twilight 6:46 AM HST 6:26 PM HST
Nautical Twilight 6:18 AM HST 6:54 PM HST
Astronomical Twilight 5:51 AM HST 7:21 PM HST
Moon 1:09 PM HST (1/2) 1:32 AM HST (1/2)
Length of Visible Light 11h 40m
Length of Day
10h 52m
Waxing Gibbous, 65% of the Moon is Illuminated
Jan 2
Waxing Gibbous
Jan 8
Full
Jan 15
Last Quarter
Jan 22
New
Jan 30
First Quarter

Hourly Weather History & Observations

Time (HST) Temp. Dew Point Humidity Pressure Visibility Wind Dir Wind Speed Gust Speed Precip Events Conditions
12:42 AM 66.2 °F 62.6 °F 88% 30.08 in 10.0 mi Calm Calm - N/A   Mostly Cloudy
12:49 AM 66.2 °F 62.6 °F 88% 30.08 in 10.0 mi Calm Calm - N/A   Scattered Clouds
12:53 AM 66.0 °F 62.1 °F 87% 30.09 in 10.0 mi Calm Calm - N/A   Scattered Clouds
1:53 AM 64.9 °F 62.1 °F 90% 30.07 in 10.0 mi Calm Calm - N/A   Partly Cloudy
2:53 AM 66.0 °F 62.1 °F 87% 30.07 in 10.0 mi Calm Calm - N/A   Overcast
3:53 AM 66.0 °F 62.1 °F 87% 30.07 in 10.0 mi Calm Calm - N/A   Partly Cloudy
4:53 AM 64.9 °F 62.1 °F 90% 30.07 in 10.0 mi Calm Calm - N/A   Clear
5:53 AM 64.0 °F 61.0 °F 90% 30.08 in 10.0 mi Calm Calm - N/A   Clear
6:53 AM 64.0 °F 61.0 °F 90% 30.10 in 10.0 mi Calm Calm - N/A   Clear
7:53 AM 64.9 °F 62.1 °F 90% 30.12 in 10.0 mi Calm Calm - N/A   Clear
8:53 AM 73.0 °F 64.9 °F 76% 30.14 in 10.0 mi Calm Calm - N/A   Clear
9:53 AM 75.9 °F 66.0 °F 71% 30.15 in 10.0 mi SSE 4.6 mph - N/A   Clear
10:53 AM 77.0 °F 66.9 °F 71% 30.14 in 10.0 mi SSE 4.6 mph - N/A   Clear
11:53 AM 78.1 °F 66.9 °F 68% 30.12 in 10.0 mi South 6.9 mph - N/A   Clear
12:53 PM 78.1 °F 68.0 °F 71% 30.09 in 10.0 mi SSW 8.1 mph - N/A   Clear
1:53 PM 78.1 °F 68.0 °F 71% 30.07 in 10.0 mi SSW 8.1 mph - N/A   Clear
2:53 PM 79.0 °F 68.0 °F 69% 30.07 in 10.0 mi SW 9.2 mph - N/A   Clear
3:53 PM 78.1 °F 66.9 °F 68% 30.08 in 10.0 mi SW 10.4 mph - N/A   Partly Cloudy
4:53 PM 77.0 °F 66.9 °F 71% 30.09 in 10.0 mi West 6.9 mph - N/A   Clear
5:53 PM 75.9 °F 66.9 °F 74% 30.11 in 10.0 mi WNW 5.8 mph - N/A   Clear
6:53 PM 75.0 °F 66.9 °F 76% 30.12 in 10.0 mi WSW 5.8 mph - N/A   Clear
7:53 PM 73.9 °F 66.9 °F 79% 30.14 in 10.0 mi Calm Calm - N/A   Clear
8:53 PM 72.0 °F 66.0 °F 81% 30.14 in 10.0 mi Calm Calm - N/A   Clear
9:53 PM 69.1 °F 64.9 °F 87% 30.13 in 7.0 mi Calm Calm - N/A   Clear
10:53 PM 69.1 °F 64.0 °F 84% 30.13 in 7.0 mi Calm Calm - N/A   Clear
11:53 PM 66.9 °F 63.0 °F 87% 30.13 in 6.0 mi Calm Calm - N/A   Clear